COSMOS 1275 DEB, 42198

Orbit data source: Space-Track

COSMOS 1275 DEB, 42198 is space debris in LEO originally from a launch on Thu, 04 Jun 1981 UTC launched from the Plesetsk Missile And Space Complex (PKMTR). Debris objects in space refer to the collection of defunct objects orbiting the Earth. Examples of debris include non-operational satellites, rocket bodies, and fragments generated from explosions, collisions, or faulty payload assembly.

Loading next visibility...
Identifier
42198, 1981-053TN
Orbit
LEO
Country
Flag of CISCIS
Related business
Manufacturer
Unknown
Mission
Spacecraft
Bus & Motor
Unknown
Mass
Unknown
Launch date (UTC)
1981-06-04 (44 years ago)
Launch vehicle
Unknown
Launch site
Plesetsk Missile And Space Complex (PKMTR)
Object type
Payload
Rocket body
Debris
Shape & HBR
Unknown shape, 0.1 m
Radar Cross Section
Small (<0.1 m²)

Expand to show TLE details & history
Last TLE update: 3 days ago

TLE from 3 days ago
0 COSMOS 1275 DEB
1 42198U 81053TN  25290.18314355  .00001769  00000-0  14031-2 0  9993
2 42198  82.8006 105.6045 0038746 335.5174  24.4149 13.90487045602921
Epoch: 2025-10-17T04:23Z
TLE epoch observation values (Epoch: 2025-10-17T04:23:43.602Z)
Latitude
-0.00003°
Longitude
13.74065°
Altitude
904.083 km
Speed
7.413 km/s
True Right ascension
07h 02m 25s
True Declination
0° 00' 00"
Sunlit
Object was in daylight at epoch
Visualization orbit readout
Latitude
Unknown
Longitude
Unknown
Altitude
Unknown
Speed
Unknown
Apparent Right ascension
Unknown
Apparent Declination
Unknown
Sunlit
N/A
Visualization observer readout
Local Sidereal Time
01:30:24
Azimuth
Unknown
Elevation
Unknown
Doppler factor
Unknown
Orbital elements
Apogee altitude
952.35 km
Perigee altitude
895.764 km
Semi-major axis
7,302.194 km
Eccentricity
0.00387
Inclination
82.8006°
RAAN
105.6045°
Arg. of periapsis
335.5174°
True anomaly
24.59923°
Mean anomaly
24.4149°
Eccentric anomaly
24.50699°
Mean motion
3.47827 °/min
Orbital period
103.5 mins
BSTAR
0.0014031
Loading maneuver chart data...
Computing Atmospheric mass density...

Documentation

Showing up to 5 results
|